Location: Peterborough
(44.3048°N, 78.3199°W)
Time: 03:29:35
(UTC-04:00)

ISS - Pass Details

Date: 18 May 2025
Orbit: 415 x 418 km, 51.6° (Epoch: 20 June)

Event Time Altitude Azimuth Distance (km) Brightness Sun altitude
Rises 23:57:49 0° 302° (WNW) 2,360 0.8 -24.0°
Reaches altitude 10° 23:59:56 10° 306° (NW) 1,494 -0.3 -24.1°
Enters shadow 00:02:11 36° 327° (NNW) 675 -2.3 -24.3°
